Wind_Speed
87 85 83 81 79 77 76 75 75 74 74 74 75 74 73 73 72 71 69 67 65 63 63 62 61 62 63 62 61 60 59 58 58 57 54 52 53 53 53 52 50 48 47 46 43 41 39 37 35 32 31 33 36 35 35 35 35 33 31 31 31 31 32 30 29 27 25 24 24 25 26 24 23 22 21 18 16 15 13 12 11 11 11 11 12 12 13 13
88 87 85 83 80 78 76 74 73 73 72 72 72 73 72 71 71 70 69 69 69 66 65 65 60 57 59 60 60 60 59 58 59 58 53 53 54 55 54 53 52 50 49 48 45 41 40 40 38 35 33 33 34 36 35 36 36 36 33 31 31 32 32 30 29 28 26 26 25 24 25 25 25 24 22 19 17 15 14 14 13 12 12 13 13 12 13 13
87 88 86 84 82 79 77 75 73 72 71 70 70 70 70 70 70 70 69 68 70 68 65 65 60 54 55 57 58 60 60 60 61 57 53 54 55 55 55 53 53 52 50 49 48 44 42 41 41 39 36 34 34 35 35 36 36 37 35 31 31 33 32 29 27 25 26 27 25 23 24 26 26 25 22 20 18 16 16 16 15 14 13 13 13 12 12 12
87 87 87 86 83 81 79 76 74 72 70 69 69 69 68 68 68 68 68 67 68 69 67 64 61 57 56 55 54 57 59 61 61 56 54 56 55 55 55 54 53 53 52 50 49 48 45 43 42 41 39 36 35 34 34 35 36 36 35 30 31 34 34 32 29 25 24 26 25 23 24 27 27 26 24 21 18 17 17 17 16 15 15 14 13 11 11 11
86 86 87 87 85 83 81 78 75 73 71 69 68 68 67 67 67 67 67 67 67 67 68 66 63 60 57 55 51 53 58 62 61 55 56 58 56 55 56 55 54 53 53 52 50 50 50 47 43 42 41 39 36 33 32 33 35 36 34 32 33 35 35 35 34 30 25 26 27 26 26 27 28 28 25 22 19 18 18 17 16 16 16 15 14 11 10 10
85 86 86 86 86 84 82 80 77 75 73 71 69 68 66 65 65 65 65 66 66 66 67 67 66 62 57 56 54 53 56 61 62 57 58 59 57 56 56 56 56 54 55 54 53 51 52 51 47 43 41 39 37 33 32 33 35 36 35 35 36 35 35 34 34 32 28 27 28 28 27 27 28 28 26 23 21 18 17 17 16 17 17 16 15 13 10 10
84 85 85 85 85 84 83 81 79 77 75 73 71 69 67 65 64 64 64 64 65 65 66 66 68 66 59 58 59 58 56 57 58 56 58 59 57 58 57 57 57 56 55 55 55 53 52 52 49 45 42 40 37 34 33 33 34 36 36 37 37 36 35 33 33 33 30 29 29 29 29 29 28 27 26 26 24 20 17 16 17 18 18 17 16 14 12 11
83 83 84 85 85 84 83 82 81 79 77 75 73 71 68 66 65 63 63 63 64 65 65 66 67 69 66 61 60 61 59 54 53 51 55 58 57 59 60 59 58 57 56 55 55 54 52 51 49 47 44 41 38 35 34 35 34 35 36 37 38 37 35 33 33 33 30 29 29 29 29 30 30 27 26 27 26 23 20 18 18 17 18 18 16 14 13 12
81 82 83 84 84 84 83 82 81 80 78 76 74 73 70 68 66 64 63 62 63 64 65 66 67 70 71 66 62 61 59 54 53 51 51 54 56 58 60 60 59 57 56 55 55 55 54 52 51 49 45 41 39 36 35 36 34 32 34 37 39 38 35 34 34 33 31 30 29 29 30 30 30 28 25 26 27 26 24 21 19 17 18 18 16 15 14 14
80 80 81 82 83 83 83 82 81 80 79 77 76 74 72 70 68 66 64 62 63 63 65 67 67 70 74 73 67 59 56 53 54 55 51 51 55 57 57 58 58 58 56 56 56 55 55 53 50 48 45 40 38 37 37 37 34 32 35 39 41 39 37 35 34 33 32 33 32 29 29 31 31 27 24 26 28 28 27 23 20 18 18 17 17 15 15 15
80 79 79 79 81 82 82 82 82 81 79 78 77 76 74 72 70 68 66 64 63 63 64 66 68 70 73 77 72 58 53 53 54 56 55 53 53 55 57 57 57 58 58 57 56 56 55 54 50 47 45 41 40 40 39 37 35 35 36 38 40 40 38 36 35 35 34 35 35 31 29 31 32 26 22 26 30 31 28 24 20 19 18 18 17 16 15 15
80 79 78 78 79 80 81 81 81 81 80 79 78 77 75 73 72 70 68 66 64 63 64 66 68 71 73 77 76 64 56 56 56 55 55 54 52 54 57 58 58 58 59 58 56 56 55 55 52 49 46 43 44 44 40 38 37 38 38 38 38 39 39 37 36 37 37 36 36 34 31 30 28 24 23 28 32 32 29 25 22 20 19 18 18 18 17 15
79 79 78 77 77 78 79 79 80 80 80 79 79 78 76 74 73 71 70 67 66 64 64 66 68 71 74 76 78 75 67 61 58 52 53 56 54 53 56 58 60 59 60 59 58 58 57 56 55 52 49 47 47 46 42 39 39 40 41 41 39 40 40 39 38 39 38 38 37 38 35 28 25 24 25 29 32 32 29 26 24 21 20 19 19 19 18 16
75 79 78 77 77 77 77 78 78 78 78 79 78 77 77 75 73 72 71 69 68 66 65 66 68 71 74 74 76 80 76 69 61 50 47 54 56 52 53 56 59 60 60 60 60 61 60 57 57 56 54 52 50 49 46 42 42 43 43 43 42 41 40 39 40 40 39 38 38 41 38 28 25 25 27 31 33 33 31 29 27 23 21 21 20 20 19 17
71 77 79 77 77 76 77 77 77 77 77 77 77 77 76 75 74 72 72 71 69 68 68 67 68 71 73 73 74 80 81 77 70 55 43 48 56 55 53 56 59 60 60 60 61 63 62 60 58 58 57 54 53 53 52 48 44 46 46 45 44 43 39 38 41 42 40 39 40 43 39 30 29 30 29 33 34 34 32 30 29 25 23 22 21 20 19 18
67 72 77 78 78 76 76 77 76 76 76 76 76 76 75 75 74 73 72 72 71 71 70 69 69 70 70 70 73 77 82 81 77 67 48 42 49 55 54 54 57 60 60 61 63 63 62 62 60 60 60 58 56 55 56 53 47 47 48 48 47 45 41 39 41 42 42 43 44 44 40 32 34 35 33 34 35 35 33 31 31 28 25 23 21 21 19 18
65 69 73 76 78 78 77 76 76 76 75 75 75 75 75 74 73 73 73 73 73 72 71 71 70 69 69 70 71 74 80 82 79 74 61 44 41 48 51 49 53 60 61 62 64 63 63 63 63 63 63 62 60 58 58 57 51 47 49 50 50 48 45 42 41 41 42 46 45 45 42 34 35 39 39 38 37 36 33 31 31 29 27 25 22 21 20 19
65 66 69 72 76 78 78 77 77 76 75 75 75 75 74 74 74 73 73 73 74 74 73 73 73 73 71 68 68 70 74 81 80 76 73 60 44 41 43 43 46 55 61 64 64 64 64 65 64 64 65 65 63 60 58 55 54 51 50 51 51 50 47 42 41 41 42 45 45 46 44 36 36 41 42 41 39 36 33 31 30 29 28 26 24 22 21 21
66 66 67 68 72 76 78 79 78 77 77 76 75 76 75 75 75 74 74 75 75 76 76 76 75 73 69 63 62 66 70 78 82 79 77 72 60 46 39 39 43 48 56 65 66 64 65 67 68 67 66 64 61 60 57 54 55 55 51 50 50 51 48 43 42 44 44 46 46 47 45 38 38 43 42 42 41 38 35 32 29 28 28 27 24 23 23 22
65 66 67 68 69 72 76 79 80 79 79 78 78 78 78 78 77 77 76 76 74 74 75 75 72 69 67 63 62 63 68 76 81 82 79 78 76 66 50 41 41 43 49 58 64 66 66 67 68 65 63 61 59 59 58 55 56 58 54 51 51 51 50 46 45 47 47 47 46 46 45 40 39 42 43 43 44 40 36 33 30 29 29 29 26 23 23 21
60 63 66 67 68 69 71 75 79 81 81 80 79 79 79 79 78 78 77 76 74 73 74 72 70 68 68 67 65 65 69 74 78 82 83 80 82 80 68 53 43 40 42 46 55 63 67 68 64 59 58 59 58 58 59 57 57 58 56 53 51 50 49 46 46 48 49 49 46 45 46 42 38 41 43 45 45 40 36 35 33 32 32 31 28 25 23 22
57 59 63 66 67 67 69 72 75 80 82 82 81 79 78 76 76 75 74 74 73 74 75 74 72 70 69 69 69 69 70 72 76 80 83 81 82 83 80 70 52 41 39 40 45 55 64 65 59 55 57 59 58 58 60 60 59 58 55 51 49 48 49 48 46 48 50 50 48 47 47 43 39 40 42 44 44 40 39 39 37 35 36 33 29 27 26 24
59 57 59 63 65 66 67 69 71 75 80 82 82 80 78 76 75 73 72 71 71 72 74 74 75 73 71 71 71 72 70 70 71 76 81 81 81 83 83 81 66 51 49 46 40 45 55 57 53 55 59 60 60 60 62 63 62 61 56 50 47 47 49 49 46 46 50 51 51 50 49 45 40 40 40 40 41 42 42 42 39 37 36 34 32 30 29 27
60 58 58 60 63 66 67 68 69 72 75 78 79 78 77 77 77 75 73 73 71 71 72 72 73 74 73 72 72 72 72 71 70 72 78 80 80 81 83 84 77 69 65 58 46 40 42 47 50 56 61 62 61 62 64 65 64 63 58 51 48 47 48 48 46 46 49 51 52 52 53 48 41 39 38 37 41 42 42 42 41 37 36 35 35 33 31 31
61 59 60 59 60 65 66 68 69 69 69 71 73 75 76 76 77 76 74 74 74 73 74 74 73 74 75 74 72 72 72 73 72 71 74 77 79 80 81 82 80 79 76 69 63 51 39 40 45 53 62 65 63 63 64 65 65 65 61 51 46 45 46 47 47 48 49 50 51 52 55 51 43 39 37 37 41 40 39 41 41 38 37 37 36 34 33 33
63 61 61 59 58 63 67 68 67 67 67 67 67 69 71 72 74 75 72 73 76 77 77 79 77 77 77 76 74 72 71 72 73 73 73 75 78 79 79 80 80 81 77 70 68 62 50 42 40 46 56 62 65 65 64 65 65 66 63 55 47 43 45 47 47 48 50 50 51 52 55 53 47 41 37 37 40 39 37 38 37 36 38 37 37 36 35 35
61 62 62 59 57 60 64 65 65 66 65 63 63 64 66 68 70 71 69 68 76 79 78 80 82 80 79 79 77 75 74 73 71 72 74 73 76 78 78 79 80 81 78 70 66 67 62 50 42 44 49 56 65 66 63 65 66 66 64 61 57 49 47 50 49 50 52 52 53 53 54 55 50 43 39 38 38 38 35 33 32 34 36 36 35 35 36 36
59 61 62 61 59 58 59 60 62 63 61 59 61 62 63 64 64 67 66 67 77 83 78 79 82 81 81 80 79 77 77 75 71 71 73 72 74 76 76 76 77 79 78 72 70 68 64 56 49 47 46 52 62 64 62 64 66 66 63 62 62 57 52 51 52 53 54 55 56 53 53 56 53 45 40 39 39 37 32 29 30 33 34 34 33 32 34 35
57 60 61 62 61 58 58 58 58 58 58 58 60 61 61 62 62 64 64 66 76 81 79 80 82 81 82 82 81 79 78 78 77 72 70 73 75 75 75 74 72 74 74 72 69 65 61 58 55 53 51 49 51 54 56 60 65 68 66 60 58 59 55 52 53 54 56 59 58 54 53 55 55 48 40 40 40 36 31 29 29 31 32 32 31 30 31 33
55 58 60 62 60 58 59 58 57 56 57 58 59 59 58 60 63 64 64 65 69 73 75 79 82 83 83 84 84 83 80 80 80 76 72 73 74 73 73 73 72 73 73 71 70 67 63 59 56 55 55 51 48 49 49 52 60 64 64 60 56 57 57 54 53 52 56 62 59 55 53 55 56 51 42 39 38 34 32 31 28 28 30 31 30 30 29 30
55 57 59 60 58 57 58 58 58 59 58 57 58 58 58 60 63 67 68 65 63 67 68 70 78 83 83 83 85 86 84 82 81 80 78 75 74 74 73 72 73 72 71 70 71 70 69 66 60 52 50 53 57 57 51 48 53 59 62 59 55 56 56 55 54 51 56 65 62 57 56 56 57 52 43 37 34 32 33 32 30 30 31 31 29 28 28 27
55 57 58 57 55 54 54 55 56 58 58 58 58 59 62 63 65 68 66 61 61 67 67 65 70 76 80 82 83 84 85 86 85 83 82 79 77 77 75 75 75 72 69 68 68 68 68 69 65 54 47 48 54 58 56 52 50 53 60 61 57 57 57 60 62 59 62 68 66 62 61 59 57 53 46 39 33 32 32 32 33 33 31 31 30 28 27 27
54 55 55 54 54 52 52 53 55 57 57 59 60 61 64 66 68 67 63 61 62 65 65 65 66 67 72 77 81 84 83 84 86 85 84 84 82 80 76 75 76 74 70 67 66 67 65 66 67 61 52 47 49 55 56 54 48 47 55 63 64 63 64 67 71 71 70 71 70 69 68 63 58 54 49 43 37 35 33 31 33 33 31 31 31 29 28 28
53 54 53 52 52 52 53 55 56 58 59 61 63 64 65 68 68 65 63 63 62 61 61 63 64 64 67 70 75 80 81 82 86 86 85 85 84 84 81 76 76 76 72 68 68 70 69 68 67 64 59 52 48 49 49 49 48 45 49 59 64 67 68 68 70 72 72 72 70 71 71 65 59 54 50 46 42 38 36 34 33 33 33 33 32 31 29 28
54 54 54 53 54 55 56 56 57 60 62 64 65 66 68 69 68 65 64 63 61 60 60 61 62 64 67 67 69 72 75 78 82 85 86 87 86 86 84 80 77 75 75 72 68 68 70 72 67 62 62 61 54 48 46 49 51 48 48 53 59 64 64 63 64 64 66 68 69 71 71 66 60 56 52 49 47 42 39 39 36 34 35 35 35 34 32 31
55 56 56 55 56 56 56 57 58 60 63 65 66 67 69 68 66 65 63 61 60 60 61 63 65 66 68 68 69 71 71 72 75 79 82 85 87 87 86 84 79 75 75 74 70 66 65 69 70 66 65 66 63 58 56 55 52 51 53 55 57 59 60 61 63 64 65 69 72 75 73 67 63 61 56 52 51 46 42 40 39 36 35 36 36 35 34 33
54 55 55 55 54 54 56 57 58 59 62 64 67 67 65 63 61 61 61 60 61 60 61 64 68 69 69 70 71 72 71 72 75 77 78 81 84 87 87 86 82 77 73 72 72 70 66 65 68 70 68 65 64 65 66 64 59 58 58 55 53 56 59 59 60 63 66 69 73 75 73 70 66 63 58 53 50 48 45 42 41 38 36 36 36 36 36 34
52 52 53 53 53 54 55 55 56 58 60 63 65 63 62 60 58 58 59 60 60 61 62 65 68 69 70 70 71 72 72 73 76 78 80 82 83 86 87 85 83 79 73 71 71 70 70 69 68 70 68 66 67 68 70 71 69 66 62 57 56 59 60 58 57 60 64 68 73 75 74 73 69 63 59 55 50 49 47 43 41 39 38 38 38 37 37 36
52 53 53 52 53 54 54 54 55 57 60 63 64 62 62 61 59 58 60 60 61 62 64 67 69 70 71 70 69 70 73 75 76 77 79 84 86 87 87 86 85 81 74 72 72 70 68 69 70 71 69 68 70 72 73 73 72 69 65 63 63 62 61 59 56 56 58 62 68 73 76 76 70 64 62 59 54 51 49 46 42 40 39 40 40 39 38 37
55 54 54 53 53 54 54 54 57 60 63 64 63 62 62 60 60 60 61 62 61 62 63 65 68 71 71 71 68 67 70 73 75 76 77 81 86 88 87 85 84 82 76 71 72 73 71 69 69 71 70 70 73 75 74 73 72 70 68 67 67 65 64 63 60 57 57 59 64 73 78 75 68 65 65 62 59 55 51 48 46 44 41 40 40 40 39 38
55 54 53 53 54 55 56 58 61 63 64 64 63 63 62 61 59 60 61 62 61 62 62 61 64 67 67 69 68 65 65 69 72 74 74 75 80 86 87 85 83 82 79 75 74 73 71 70 71 72 72 71 71 71 70 69 70 68 67 67 66 65 66 67 67 65 63 62 63 69 77 76 70 68 68 65 62 56 51 50 49 46 42 40 40 40 39 38
52 51 51 54 55 57 59 61 62 62 62 61 60 59 59 58 57 56 58 59 58 59 61 61 62 62 62 63 63 60 60 63 67 70 70 71 74 80 84 83 81 81 80 78 77 74 70 68 69 71 72 69 68 67 66 66 66 66 66 65 62 62 65 66 68 68 65 64 62 63 71 75 73 70 69 66 63 55 50 50 49 46 42 39 39 40 39 40
50 48 48 51 53 55 56 57 56 56 56 55 55 54 53 53 52 53 54 55 54 54 58 61 61 60 60 59 56 55 56 58 61 61 61 65 69 72 77 78 77 78 79 77 75 75 74 73 71 70 69 69 68 66 65 64 65 67 68 64 62 62 62 61 61 60 60 61 60 61 67 70 70 69 68 66 65 58 52 52 50 46 43 41 39 39 40 41
47 45 44 46 49 51 53 55 54 52 51 50 51 52 50 48 49 48 48 50 53 51 53 58 59 58 59 57 52 52 55 57 59 57 53 56 63 66 70 73 75 76 77 76 73 72 74 75 76 75 72 71 71 69 67 66 66 66 64 62 61 60 60 60 59 57 58 61 62 64 67 68 67 68 68 68 67 63 57 55 52 48 45 43 40 39 40 40
44 44 44 46 47 47 49 50 51 49 47 45 46 47 45 45 46 46 43 45 51 52 51 54 56 55 55 52 49 51 57 59 60 59 54 53 58 62 64 69 76 76 74 74 72 72 74 76 77 78 78 76 76 74 71 68 67 65 62 59 58 59 61 62 61 62 64 63 65 69 70 68 65 65 67 69 70 68 63 58 54 50 46 43 40 39 39 39
46 46 48 50 48 47 46 46 46 46 45 42 41 42 43 44 44 44 43 44 48 51 51 54 56 54 52 48 43 45 54 60 61 60 58 54 56 61 62 66 75 78 76 75 74 72 74 76 76 75 76 76 75 74 72 70 70 68 63 58 57 58 60 62 65 68 65 60 64 67 66 66 67 66 66 65 66 67 66 61 56 52 48 44 41 40 40 39
51 50 51 51 51 50 50 50 51 51 49 46 40 38 41 45 46 45 45 47 48 49 51 55 57 55 51 49 45 41 43 50 55 57 57 57 57 60 63 66 74 80 80 81 80 71 66 70 73 70 70 72 73 73 72 72 72 69 63 60 58 57 60 64 68 68 64 64 66 62 57 61 65 66 69 67 63 62 63 60 54 51 49 46 43 42 42 42
56 55 53 51 51 52 53 53 54 56 56 54 46 39 40 45 48 47 48 50 49 48 51 56 57 53 51 51 51 47 44 45 47 49 52 56 60 63 64 66 74 81 83 85 85 73 62 65 67 61 60 65 69 71 73 72 71 66 62 60 59 59 62 64 64 63 63 67 66 58 56 60 60 61 66 66 62 58 57 56 51 49 51 50 46 46 47 47
56 57 55 53 52 52 53 53 53 55 59 60 53 45 42 45 47 48 49 51 49 48 52 56 56 53 52 52 50 47 46 47 48 47 48 51 58 64 66 67 73 79 81 84 86 78 67 62 58 55 55 59 62 65 68 70 70 67 63 59 59 60 61 62 61 59 61 65 62 56 58 60 55 55 56 56 56 56 56 57 55 51 53 54 51 51 52 51
51 52 53 54 52 50 50 50 49 52 58 61 58 52 48 47 48 48 50 51 50 50 51 55 57 55 55 59 54 43 36 34 39 45 48 49 55 63 67 69 73 77 79 82 85 84 76 65 56 54 54 55 60 61 62 65 66 66 65 62 62 63 62 62 61 58 59 63 60 56 59 57 50 48 51 52 55 56 56 58 57 54 53 54 54 53 53 53
46 48 48 50 51 49 48 47 47 48 52 54 54 51 48 47 47 48 50 50 49 50 52 55 58 54 53 59 57 44 33 26 28 36 42 47 53 61 67 71 73 76 78 80 82 84 83 74 66 62 56 50 53 57 59 62 63 65 66 65 64 65 64 63 61 58 59 62 59 59 59 52 43 44 49 52 53 53 52 53 55 53 51 51 51 50 52 54
45 45 45 45 47 47 47 47 47 47 47 47 47 46 44 42 41 42 45 46 46 48 51 55 58 55 52 52 51 45 38 30 29 34 36 41 47 55 65 71 74 75 75 77 79 82 86 84 78 75 66 51 47 51 52 57 64 67 68 65 63 63 62 62 60 58 58 59 60 60 55 46 42 46 48 48 48 48 49 49 51 50 48 49 50 47 47 50
Wind_Direction
221 221 221 221 220 220 220 220 220 221 221 222 222 222 222 222 221 221 218 216 216 215 216 222 227 227 225 226 226 225 225 224 225 226 224 223 225 227 227 227 227 226 227 228 228 228 227 226 224 219 214 213 216 218 219 222 226 228 226 229 233 237 241 243 246 245 244 249 249 245 244 242 241 241 241 241 242 240 238 234 230 225 223 225 227 233 236 233
221 221 221 221 221 220 219 219 220 220 220 221 221 221 221 221 220 220 219 217 215 215 217 221 224 228 228 227 227 226 225 224 224 225 224 223 223 225 227 227 227 228 227 228 229 229 228 227 224 220 216 213 215 218 220 221 225 228 229 230 231 235 239 242 246 245 241 245 249 248 245 243 241 242 242 241 242 241 240 240 237 232 226 225 225 229 235 234
221 220 220 221 221 221 220 219 219 219 220 220 220 221 221 220 220 219 219 218 217 215 216 221 221 223 229 230 229 228 226 225 225 223 222 224 223 224 227 227 228 229 229 229 230 229 229 228 226 223 220 215 214 217 220 222 224 227 229 230 230 234 238 241 244 242 239 241 246 248 246 244 243 242 242 242 242 241 241 242 242 241 236 231 228 229 235 238
221 220 220 220 220 221 221 220 219 218 219 219 219 220 220 220 219 219 218 217 218 216 215 217 216 217 225 229 230 231 229 227 226 222 220 223 223 223 225 227 228 228 229 230 230 230 230 230 229 227 224 220 217 217 220 224 227 227 227 227 229 232 237 241 242 239 241 244 245 245 244 244 245 244 241 241 242 240 241 243 244 248 246 241 235 232 238 242
221 220 219 219 219 220 221 221 220 219 219 219 219 219 219 219 219 218 218 216 217 217 215 215 214 214 220 225 226 231 232 229 226 221 219 222 222 222 224 225 227 228 229 230 230 230 231 232 231 229 227 224 221 219 220 224 229 230 227 226 228 232 236 241 244 244 247 249 246 244 244 244 246 246 243 241 240 240 243 245 247 251 252 250 244 236 238 245
221 220 220 219 219 219 220 221 220 220 219 219 219 219 219 219 219 218 217 216 216 216 215 215 214 212 215 220 220 224 230 230 227 222 221 222 221 222 223 224 226 227 228 229 230 230 231 232 231 230 230 228 225 223 223 223 227 230 229 228 230 234 237 241 246 248 249 249 245 243 244 244 246 247 246 244 240 238 244 249 249 251 252 252 250 243 237 241
220 220 220 219 219 219 219 220 220 220 220 219 219 219 219 218 218 218 217 216 215 214 214 214 214 212 211 215 216 218 224 227 225 222 223 222 221 223 223 223 225 226 227 228 230 231 232 233 233 232 232 231 227 225 225 224 225 226 227 228 231 234 236 239 243 246 246 244 240 240 243 245 246 247 247 247 243 237 240 248 251 252 253 252 251 249 243 240
219 220 220 219 219 219 219 220 220 220 220 220 219 219 219 218 218 217 217 216 215 213 213 213 213 212 211 212 212 215 219 223 222 220 222 222 219 221 223 223 224 225 227 228 229 230 231 233 233 233 232 232 229 227 228 227 225 225 225 226 230 233 235 236 240 243 241 239 239 239 241 244 246 247 247 249 247 240 236 240 248 253 256 257 254 252 250 247
219 219 219 219 219 219 219 219 220 220 221 221 220 219 219 219 218 217 216 215 214 213 212 212 212 212 212 213 211 211 214 220 223 221 221 221 218 219 221 222 222 224 225 227 228 229 230 231 232 233 231 230 230 228 229 228 226 226 226 225 227 230 233 235 237 238 235 234 239 239 239 243 246 246 247 250 250 246 239 236 242 249 256 260 261 258 255 253
218 218 218 219 219 219 219 219 220 220 221 221 221 220 219 219 218 218 217 215 214 213 212 211 211 211 212 214 213 209 209 216 224 224 222 223 220 218 219 221 221 223 224 225 227 229 230 231 231 232 231 228 229 229 229 228 226 226 227 225 225 226 229 232 234 235 231 232 237 240 238 241 244 245 246 251 253 249 244 238 238 244 252 258 262 261 259 257
218 218 218 218 218 219 219 219 219 220 221 221 221 221 220 220 219 218 217 216 215 213 212 211 211 211 212 214 213 209 207 211 221 225 223 223 223 219 218 220 221 222 223 224 225 227 228 229 229 230 231 227 227 230 229 229 228 228 230 228 228 226 226 230 233 232 230 231 236 241 242 241 243 244 244 249 252 251 247 242 239 241 246 251 256 258 257 257
217 217 217 217 217 218 218 219 219 220 220 221 221 221 220 220 220 219 218 217 216 214 212 211 211 211 211 213 211 208 208 209 214 221 221 219 221 221 217 217 219 220 221 222 223 225 226 227 227 227 229 227 226 230 231 230 230 231 233 232 230 228 226 227 231 232 231 232 236 242 244 242 244 244 241 245 250 252 252 248 242 239 242 245 250 253 253 253
216 217 217 217 216 217 217 218 219 219 220 221 221 221 221 221 220 220 219 218 217 215 214 212 211 211 211 212 210 209 212 211 208 211 217 217 216 219 219 217 217 219 219 220 221 223 224 226 227 226 226 225 225 227 230 231 232 233 234 234 232 230 227 226 229 232 233 234 237 241 242 238 241 242 240 245 250 254 255 253 247 241 240 242 245 248 251 251
216 216 217 217 216 216 217 217 218 219 220 220 221 221 221 221 220 220 220 219 218 217 215 213 212 211 211 211 210 210 214 215 210 204 207 216 216 216 219 220 219 220 220 220 220 222 222 223 225 225 225 225 224 224 226 229 230 232 234 234 233 232 230 228 230 232 233 235 236 241 240 233 237 242 241 244 249 252 253 253 251 246 241 241 243 246 249 250
215 216 216 217 216 216 216 217 217 218 219 220 220 221 221 221 220 220 220 219 218 218 216 215 213 212 211 210 210 211 214 217 217 209 199 206 215 218 219 221 220 221 222 222 222 222 222 222 223 224 224 223 224 222 222 225 227 230 232 233 233 233 233 231 231 232 234 236 237 240 240 232 235 242 242 244 246 248 251 252 252 249 243 240 242 245 247 250
214 215 215 216 217 216 216 217 217 217 218 219 219 220 220 221 220 220 220 219 219 218 218 217 216 215 213 210 210 212 214 217 219 217 207 196 206 217 220 221 221 221 222 223 224 223 223 222 222 224 224 222 224 224 222 223 225 228 231 232 234 236 235 234 234 234 235 237 238 241 241 232 235 242 244 246 246 246 248 251 252 249 245 241 241 244 247 249
215 215 215 215 217 217 217 217 217 217 218 219 219 219 220 220 220 220 219 219 218 218 218 218 217 216 214 210 208 211 213 216 219 220 217 205 200 209 215 218 221 221 221 222 224 224 224 224 224 224 226 224 224 225 223 222 223 227 231 232 234 235 235 234 235 237 237 238 239 242 242 233 234 241 245 247 247 246 246 248 250 250 248 244 241 242 245 247
214 214 215 215 216 217 217 217 217 218 218 218 219 219 220 220 220 220 219 219 218 218 218 217 216 216 215 211 209 211 213 216 219 220 220 216 206 201 203 207 216 221 222 223 223 223 224 225 225 225 226 227 226 227 227 226 225 228 233 234 234 235 237 237 237 239 239 238 238 241 242 235 233 240 244 248 248 246 245 244 247 249 250 248 242 239 242 244
213 214 215 214 216 216 217 218 218 218 218 218 219 219 219 220 220 220 219 219 218 218 218 218 218 218 217 215 213 212 212 215 219 220 220 219 215 207 199 200 209 216 221 223 223 223 224 224 225 225 226 229 230 231 231 230 228 229 232 235 237 237 239 241 239 238 239 239 238 239 241 236 233 238 243 247 249 247 246 244 244 247 250 251 245 237 238 242
212 213 214 214 215 216 217 218 218 219 219 219 220 220 220 219 219 220 220 220 220 221 222 222 222 222 220 217 215 213 213 215 218 220 220 220 220 218 211 202 203 211 217 222 223 223 224 225 225 225 227 230 232 231 231 231 231 231 233 235 238 239 240 240 238 236 238 240 239 240 241 236 233 238 242 245 248 247 247 247 246 246 247 249 248 239 235 238
206 209 212 213 214 215 216 218 219 219 220 220 221 221 221 221 221 221 222 222 222 223 224 223 222 222 220 218 216 214 214 214 216 220 221 220 221 224 220 210 203 208 216 219 221 222 223 224 225 225 227 230 231 231 232 232 232 234 236 238 240 241 238 237 237 236 237 239 240 240 240 238 234 237 240 242 245 246 245 247 247 247 245 246 249 246 238 235
201 204 209 212 213 215 216 217 219 219 220 221 222 222 223 224 224 224 224 225 225 225 225 224 222 221 219 218 217 216 215 215 215 218 222 222 222 224 225 220 211 206 214 220 219 220 223 223 222 224 226 229 230 230 231 231 232 233 236 239 241 239 236 235 237 238 238 238 240 240 241 239 235 236 239 240 244 245 243 243 246 248 247 247 250 249 242 235
201 201 205 210 212 214 215 217 218 219 220 220 221 222 223 224 225 225 225 226 227 228 227 225 224 222 220 219 218 218 217 216 216 217 222 223 223 224 226 226 220 212 216 221 219 221 224 222 220 223 226 228 228 229 230 229 230 231 233 236 236 234 234 236 238 238 238 238 239 240 241 238 234 235 239 241 242 244 244 244 245 249 251 251 251 249 244 240
201 199 202 207 209 212 214 215 217 218 219 220 220 221 223 225 225 226 226 227 227 228 228 227 225 223 222 220 219 219 218 218 217 217 220 224 225 225 227 228 226 223 222 222 223 224 220 218 222 226 227 228 227 227 228 229 228 229 231 234 232 231 235 238 238 238 238 238 239 241 242 238 235 236 238 242 243 242 244 247 247 250 253 252 251 250 248 245
200 200 202 204 207 210 212 214 215 217 218 219 219 220 223 224 225 227 228 229 228 227 227 226 225 224 222 221 220 220 219 218 218 217 219 222 225 226 227 229 229 229 228 228 230 229 217 214 223 228 229 229 228 227 228 230 230 229 229 232 233 234 238 240 239 240 240 240 240 243 244 239 236 236 237 241 246 245 244 247 250 252 254 254 252 251 252 250
201 202 202 203 207 209 210 212 214 216 217 217 218 219 222 224 225 227 228 231 230 229 227 226 225 224 222 222 222 221 220 219 218 218 218 220 224 227 227 229 230 230 230 231 233 232 226 224 228 230 230 230 229 228 228 229 231 230 228 230 234 236 240 242 242 243 243 242 241 244 245 241 235 233 236 240 246 248 247 247 250 254 256 256 253 252 253 252
202 203 202 201 205 209 211 213 214 216 217 216 217 218 220 222 224 225 226 229 230 229 229 228 226 224 223 223 223 222 222 220 218 219 219 220 223 226 228 229 230 231 231 231 233 233 231 230 230 230 230 229 228 227 228 229 231 231 229 231 234 237 241 242 243 245 244 243 243 242 244 243 235 229 233 239 244 247 248 248 250 252 255 256 254 252 252 253
203 202 201 200 203 207 209 212 214 217 217 217 217 218 219 220 222 223 223 226 228 228 228 229 228 225 225 225 224 224 223 221 221 222 222 222 223 225 229 230 231 233 234 234 233 234 234 233 231 230 230 230 228 226 228 230 232 231 230 233 235 237 240 241 241 243 244 244 243 241 244 245 238 229 231 237 242 246 248 250 250 250 252 255 256 255 252 251
203 203 201 202 204 205 206 208 210 213 215 215 216 217 218 218 219 221 222 225 227 227 228 229 229 227 226 226 225 226 224 222 221 221 222 224 224 224 228 230 231 234 236 236 234 233 234 234 233 234 235 232 229 230 232 232 231 232 231 232 235 236 237 238 239 240 244 245 242 240 244 246 241 234 230 232 238 245 249 250 251 250 251 253 254 253 251 250
200 202 201 202 203 204 204 204 206 208 210 212 214 214 214 216 218 218 219 222 224 226 227 228 229 229 228 227 226 226 226 225 223 221 222 224 225 225 226 228 231 234 236 237 235 233 233 232 232 236 238 234 232 236 238 237 235 234 232 231 233 234 235 237 237 238 243 245 241 241 245 247 244 236 229 229 234 241 246 249 253 252 249 249 251 252 250 249
197 200 201 201 202 204 204 205 206 208 209 210 212 212 211 214 217 218 219 221 222 224 226 226 227 229 229 229 228 227 227 227 225 223 223 223 224 224 223 225 229 232 234 235 235 234 233 232 231 236 239 236 235 236 237 238 238 236 234 233 233 233 234 236 236 235 241 243 242 243 245 247 243 235 229 228 231 239 244 246 251 251 248 247 248 251 252 251
197 200 201 201 201 203 204 205 208 209 210 210 211 212 212 213 216 218 220 220 222 223 223 223 225 227 229 229 230 229 229 229 227 225 225 225 226 227 225 223 226 229 232 233 233 233 234 234 233 233 236 235 235 234 232 232 234 234 234 233 233 234 234 235 236 237 242 244 244 245 247 245 241 237 236 232 230 239 243 242 246 249 249 248 246 247 251 253
196 199 200 201 202 202 201 203 206 208 209 210 211 212 213 216 217 219 220 220 222 225 225 225 225 226 228 229 230 230 230 230 229 228 228 227 228 229 228 226 226 229 232 233 234 232 231 233 232 229 228 227 227 228 229 229 230 231 234 234 233 234 234 235 237 237 241 244 245 247 248 244 239 239 242 241 237 238 240 239 241 246 250 250 249 248 248 252
196 197 199 200 200 200 200 201 203 206 208 210 211 212 214 217 219 220 222 222 223 226 228 228 227 226 227 229 229 230 230 230 229 229 230 229 229 229 228 227 226 228 231 232 235 235 232 231 231 227 226 226 226 227 230 234 236 235 238 239 238 237 238 238 239 240 241 244 246 248 248 245 240 241 245 248 246 240 239 239 236 239 245 249 252 252 252 253
195 196 197 198 198 198 198 200 202 205 207 209 211 214 215 217 218 219 221 222 223 225 227 228 228 227 227 228 229 230 230 231 231 230 231 230 230 229 229 228 226 226 228 229 231 235 236 235 234 232 231 231 229 229 231 235 239 238 237 239 239 239 241 242 243 243 244 245 246 248 248 245 243 243 244 247 249 244 241 241 239 238 241 246 251 254 256 256
194 195 196 196 196 196 198 200 202 205 208 209 212 215 217 219 220 221 223 224 225 227 228 229 229 228 228 227 228 228 228 230 231 231 231 231 230 230 230 230 228 226 227 227 228 231 236 238 236 235 235 233 231 232 235 238 239 240 240 239 239 241 241 242 243 243 243 245 244 244 245 243 243 243 242 244 247 248 246 244 244 244 243 245 251 255 257 257
192 193 193 193 193 194 197 199 202 205 208 211 213 216 217 219 220 222 223 224 226 228 230 232 233 233 231 229 228 228 228 229 230 230 231 230 230 229 228 229 229 228 227 227 228 230 233 237 238 236 236 235 234 236 239 241 241 243 244 243 243 244 243 241 242 242 243 244 244 243 243 243 243 243 242 243 247 251 252 248 247 248 249 249 251 255 258 259
190 191 192 191 191 192 195 198 201 205 209 212 215 217 217 219 220 223 225 226 228 229 231 233 235 236 236 234 231 229 228 229 230 231 230 229 230 229 228 227 228 227 226 225 226 228 232 235 237 237 237 237 238 238 238 239 240 242 244 244 244 246 246 244 244 245 246 247 246 245 244 243 241 240 243 246 249 254 257 255 251 249 250 251 251 253 256 259
190 192 193 191 191 193 196 199 204 208 213 216 218 220 221 221 222 225 227 228 229 230 232 234 235 236 236 236 234 231 230 230 231 232 231 230 229 229 229 229 228 227 225 223 224 227 230 234 236 237 237 238 238 238 237 237 237 238 240 242 242 244 246 247 247 249 250 251 250 248 247 244 240 239 244 249 253 255 257 259 258 252 248 250 251 251 253 255
192 194 196 195 196 200 202 205 210 213 216 219 221 224 225 225 225 227 229 229 229 230 232 233 234 234 234 233 233 232 232 231 231 232 233 232 230 229 229 229 228 228 226 224 224 227 229 232 235 236 238 239 239 239 239 238 238 238 240 242 243 243 244 244 245 246 246 248 248 248 247 242 239 240 244 248 253 255 255 258 259 257 251 249 249 250 251 253
196 198 201 202 203 207 209 211 214 217 220 223 224 226 228 229 228 229 230 229 229 229 229 230 231 230 230 229 230 230 230 230 230 231 232 233 231 229 227 227 227 227 226 224 223 225 228 231 234 236 238 239 240 241 242 242 241 242 244 246 247 247 247 246 245 244 244 245 247 248 246 240 237 240 242 245 250 253 256 256 258 260 258 254 252 252 252 254
205 209 210 210 210 212 214 215 218 221 223 225 225 226 226 226 225 225 226 226 225 226 227 226 227 227 226 225 226 228 228 226 227 229 230 231 231 229 227 226 226 226 226 226 225 225 228 232 234 236 238 241 241 241 241 241 240 240 243 245 247 247 247 247 248 248 249 251 251 254 251 242 239 243 246 248 250 251 255 258 258 260 261 259 258 256 255 254
212 213 211 210 210 211 212 213 215 218 220 221 221 221 220 220 220 221 222 220 219 222 224 223 223 223 220 219 223 226 226 224 225 228 230 231 230 228 226 225 223 222 222 224 224 224 228 232 233 235 237 239 241 240 239 238 237 237 237 239 241 243 245 246 248 249 251 252 251 254 254 245 241 246 249 251 254 253 254 257 258 260 260 260 260 257 255 254
203 202 201 202 203 205 207 208 208 211 214 214 213 214 215 215 216 217 217 214 212 215 220 219 219 218 215 217 224 227 226 226 227 229 230 229 227 225 224 223 220 219 219 221 222 222 226 231 232 232 232 233 235 236 235 234 235 236 236 236 239 242 242 242 242 243 244 245 244 248 250 245 242 245 246 248 251 251 251 252 254 256 257 257 257 256 254 254
194 194 194 196 197 199 203 205 205 205 206 206 206 208 210 209 210 211 212 209 206 208 214 216 214 215 216 220 227 228 228 227 228 229 229 228 225 221 221 220 217 216 217 218 221 224 228 230 230 230 231 232 232 233 234 233 234 236 236 237 240 242 242 241 241 241 242 242 244 246 248 247 246 247 248 248 248 249 249 249 250 253 254 254 255 254 253 253
191 190 189 189 191 194 198 201 202 201 200 200 202 205 206 204 204 206 208 208 206 206 211 214 212 212 215 219 223 224 225 226 228 229 229 228 225 221 220 219 215 214 215 216 219 223 224 224 225 228 231 234 236 237 237 237 237 238 239 240 241 242 243 243 242 242 242 243 245 246 248 248 249 249 251 252 252 252 251 250 249 251 252 252 252 251 252 253
189 189 188 188 188 190 194 199 203 204 203 200 201 204 205 204 205 206 207 210 211 209 210 212 210 210 215 218 220 221 221 223 226 229 229 228 226 222 221 219 215 213 214 216 218 220 221 218 218 222 228 232 235 237 239 240 239 239 241 243 244 245 244 243 242 242 241 241 242 243 245 246 247 248 249 250 252 254 255 254 253 251 250 249 249 250 252 254
187 189 189 189 188 187 189 194 199 204 205 202 201 203 205 206 207 207 205 209 213 213 211 209 208 211 218 220 224 227 227 225 225 226 228 227 225 222 220 220 217 214 215 217 217 220 222 217 215 222 229 231 232 233 235 238 239 238 239 241 242 243 244 245 245 245 244 244 244 244 246 246 244 245 246 248 250 253 256 258 257 254 251 250 249 249 251 252
182 183 184 187 188 187 189 191 194 197 199 198 199 201 203 204 205 206 206 209 214 212 209 209 211 215 220 221 222 222 223 226 228 228 228 228 225 222 219 220 219 217 218 219 218 221 223 217 217 227 234 233 233 232 233 235 238 237 237 237 238 240 243 245 247 247 247 248 247 246 247 246 243 245 248 249 252 254 256 257 258 257 255 252 248 247 248 248
181 181 181 184 187 188 190 193 193 192 192 194 198 201 201 202 204 206 208 212 216 213 209 211 214 217 220 221 219 210 203 211 222 226 227 227 225 222 219 219 220 220 221 221 221 224 225 221 220 227 232 231 231 231 232 233 235 238 238 239 240 242 243 243 244 244 245 247 245 243 246 245 241 243 246 247 250 253 254 256 257 256 256 253 249 245 243 243
185 185 185 187 189 190 191 194 196 195 194 196 199 200 199 200 203 205 208 212 214 212 211 212 215 218 219 218 218 210 195 190 200 212 220 222 223 223 221 220 221 222 223 224 223 225 227 225 223 226 231 230 228 230 232 233 235 237 238 239 242 243 243 243 242 241 242 243 241 239 241 240 235 237 240 242 246 250 252 255 258 258 258 257 254 248 243 243
187 188 189 191 193 194 193 195 199 202 202 203 204 204 202 202 203 204 208 212 212 210 213 215 218 222 223 222 221 214 203 198 195 196 205 211 216 220 221 221 223 225 225 225 226 228 229 228 226 228 232 230 226 230 233 235 237 237 236 238 242 245 245 243 242 242 242 243 242 240 240 240 239 239 240 243 246 249 251 255 258 260 259 258 256 251 246 244
Height
5644 5649 5655 5661 5667 5672 5678 5684 5689 5694 5700 5705 5709 5715 5720 5725 5732 5738 5744 5750 5755 5761 5766 5768 5770 5773 5778 5781 5785 5790 5795 5799 5803 5807 5813 5817 5819 5821 5823 5826 5829 5832 5834 5836 5838 5840 5843 5846 5849 5851 5853 5855 5856 5858 5860 5862 5863 5864 5866 5868 5869 5869 5869 5871 5874 5878 5880 5880 5881 5881 5882 5884 5885 5885 5886 5887 5887 5887 5888 5887 5887 5887 5887 5887 5888 5888 5888 5889
5636 5642 5648 5654 5659 5666 5672 5678 5683 5689 5694 5699 5704 5709 5714 5720 5726 5731 5738 5744 5749 5756 5760 5763 5767 5771 5774 5776 5781 5785 5790 5794 5798 5804 5810 5812 5815 5818 5819 5823 5826 5829 5832 5834 5836 5839 5841 5843 5845 5848 5850 5852 5854 5856 5857 5859 5861 5862 5864 5866 5867 5867 5868 5870 5873 5876 5878 5878 5879 5880 5882 5882 5883 5884 5885 5886 5886 5887 5887 5886 5885 5885 5885 5886 5886 5887 5887 5888
5629 5635 5641 5647 5653 5660 5666 5672 5678 5683 5689 5694 5699 5704 5709 5714 5720 5726 5732 5738 5743 5750 5755 5759 5765 5769 5770 5773 5777 5780 5785 5789 5793 5801 5806 5807 5811 5814 5816 5820 5823 5826 5829 5831 5834 5836 5838 5839 5841 5844 5847 5850 5852 5854 5855 5857 5858 5860 5862 5865 5866 5866 5866 5868 5871 5874 5875 5876 5878 5880 5881 5880 5881 5882 5884 5885 5885 5886 5886 5884 5884 5884 5884 5885 5886 5886 5887 5888
5621 5627 5634 5640 5647 5653 5659 5666 5672 5678 5683 5689 5694 5699 5704 5709 5715 5720 5726 5732 5738 5744 5749 5754 5759 5764 5766 5769 5773 5776 5780 5783 5789 5800 5801 5801 5806 5810 5813 5816 5819 5822 5825 5828 5831 5833 5834 5837 5839 5842 5845 5848 5850 5852 5854 5855 5856 5858 5861 5864 5864 5864 5864 5866 5869 5872 5873 5874 5876 5878 5878 5878 5879 5880 5882 5883 5885 5885 5884 5884 5884 5884 5884 5884 5885 5886 5886 5887
5614 5621 5627 5633 5640 5647 5653 5660 5666 5673 5678 5683 5688 5694 5699 5704 5709 5715 5720 5726 5732 5738 5744 5749 5753 5758 5762 5765 5769 5772 5774 5776 5786 5794 5793 5795 5801 5805 5809 5812 5815 5818 5821 5824 5827 5829 5831 5833 5836 5839 5841 5845 5848 5851 5853 5854 5855 5856 5860 5862 5861 5861 5863 5864 5866 5869 5872 5873 5874 5876 5876 5877 5877 5878 5880 5882 5883 5884 5883 5883 5884 5884 5884 5884 5884 5885 5886 5886
5607 5614 5621 5627 5634 5640 5647 5653 5660 5666 5672 5677 5683 5689 5694 5699 5705 5710 5715 5721 5727 5732 5737 5743 5748 5753 5758 5762 5765 5767 5767 5770 5781 5787 5788 5793 5798 5800 5804 5807 5810 5813 5817 5820 5823 5825 5828 5830 5833 5836 5839 5842 5845 5849 5851 5852 5853 5854 5857 5858 5858 5860 5862 5863 5864 5866 5869 5871 5871 5873 5874 5875 5875 5877 5879 5880 5881 5883 5883 5883 5883 5883 5883 5884 5884 5884 5885 5886
5600 5607 5614 5621 5627 5634 5641 5647 5653 5659 5665 5671 5677 5684 5689 5695 5700 5704 5710 5715 5721 5727 5732 5738 5742 5748 5753 5756 5758 5761 5762 5767 5777 5782 5784 5790 5794 5797 5800 5802 5806 5809 5813 5816 5819 5822 5824 5827 5830 5833 5836 5838 5842 5846 5848 5849 5851 5852 5854 5856 5856 5858 5860 5861 5862 5863 5866 5868 5869 5870 5871 5872 5873 5875 5877 5878 5879 5881 5882 5882 5882 5882 5882 5883 5883 5884 5884 5885
5593 5600 5608 5615 5621 5628 5635 5641 5647 5653 5659 5666 5672 5678 5684 5690 5695 5700 5705 5710 5715 5721 5726 5731 5736 5742 5747 5750 5752 5755 5760 5767 5774 5777 5779 5784 5790 5792 5794 5798 5802 5805 5809 5812 5815 5818 5821 5824 5827 5830 5832 5835 5839 5842 5844 5846 5848 5850 5853 5854 5854 5856 5858 5859 5860 5861 5863 5866 5867 5869 5869 5870 5871 5873 5875 5876 5876 5878 5880 5880 5880 5881 5881 5882 5883 5884 5884 5884
5587 5594 5601 5608 5615 5622 5628 5635 5641 5647 5654 5660 5666 5672 5678 5684 5689 5695 5699 5704 5710 5715 5720 5725 5731 5736 5741 5744 5746 5750 5761 5767 5769 5772 5775 5779 5784 5786 5790 5794 5797 5801 5805 5808 5810 5814 5817 5820 5822 5825 5829 5832 5835 5838 5840 5842 5845 5849 5850 5851 5851 5853 5856 5857 5857 5858 5861 5863 5865 5867 5868 5868 5869 5871 5874 5874 5874 5875 5877 5879 5880 5880 5880 5881 5882 5883 5883 5884
5580 5587 5595 5602 5609 5616 5622 5629 5635 5641 5647 5653 5660 5667 5673 5678 5684 5689 5695 5700 5705 5709 5714 5719 5725 5730 5734 5737 5741 5750 5762 5764 5764 5768 5771 5774 5778 5782 5787 5790 5793 5797 5800 5803 5806 5810 5814 5817 5819 5821 5826 5829 5832 5834 5837 5839 5843 5845 5845 5846 5848 5850 5852 5853 5855 5856 5859 5861 5862 5864 5865 5866 5867 5870 5873 5872 5871 5872 5874 5876 5878 5879 5879 5880 5881 5882 5882 5883
5574 5581 5588 5596 5603 5610 5616 5623 5629 5635 5641 5648 5654 5661 5667 5673 5678 5684 5690 5695 5699 5704 5709 5714 5719 5723 5728 5732 5739 5751 5760 5760 5761 5763 5766 5769 5773 5778 5783 5786 5789 5792 5794 5798 5802 5806 5810 5813 5816 5818 5822 5826 5829 5831 5833 5836 5840 5841 5842 5843 5845 5847 5849 5851 5852 5854 5856 5857 5859 5861 5863 5864 5865 5869 5872 5870 5868 5869 5871 5874 5877 5877 5878 5878 5879 5879 5880 5881
5568 5575 5582 5590 5597 5604 5610 5617 5623 5629 5635 5642 5648 5655 5661 5667 5673 5679 5684 5690 5694 5699 5703 5708 5712 5717 5722 5726 5737 5749 5753 5753 5755 5757 5760 5765 5769 5773 5777 5779 5783 5786 5789 5794 5798 5801 5805 5808 5811 5814 5818 5823 5826 5827 5829 5833 5836 5838 5839 5840 5843 5844 5846 5849 5850 5851 5853 5855 5857 5859 5860 5863 5865 5869 5870 5867 5865 5866 5869 5872 5874 5875 5876 5876 5877 5877 5878 5879
5562 5569 5576 5583 5591 5597 5604 5611 5618 5624 5630 5636 5642 5649 5655 5662 5668 5673 5678 5684 5689 5693 5698 5702 5706 5710 5714 5721 5733 5742 5744 5746 5748 5750 5754 5759 5765 5769 5771 5774 5777 5779 5782 5787 5792 5795 5799 5803 5806 5810 5814 5818 5821 5823 5826 5829 5832 5835 5836 5837 5839 5841 5843 5847 5848 5849 5851 5853 5855 5855 5857 5862 5865 5866 5867 5865 5863 5865 5867 5870 5872 5873 5874 5875 5875 5875 5876 5877
5557 5563 5571 5578 5585 5591 5598 5605 5611 5618 5624 5630 5636 5643 5649 5656 5661 5667 5673 5678 5683 5687 5691 5694 5699 5703 5706 5717 5730 5734 5736 5740 5741 5744 5749 5754 5760 5764 5768 5771 5773 5775 5778 5783 5786 5788 5793 5797 5800 5804 5808 5812 5815 5818 5821 5824 5827 5830 5832 5834 5835 5837 5840 5844 5845 5846 5849 5851 5853 5851 5854 5862 5863 5863 5864 5863 5862 5863 5865 5867 5869 5872 5872 5873 5873 5873 5874 5875
5552 5558 5565 5572 5579 5586 5593 5599 5606 5612 5618 5624 5631 5636 5643 5649 5655 5661 5666 5671 5676 5680 5683 5688 5692 5695 5701 5712 5723 5728 5730 5733 5736 5741 5746 5751 5756 5761 5764 5766 5769 5772 5775 5779 5781 5783 5788 5792 5794 5798 5802 5806 5810 5813 5816 5818 5822 5824 5826 5829 5832 5834 5838 5842 5842 5844 5847 5848 5849 5847 5851 5860 5861 5859 5861 5860 5860 5861 5862 5864 5866 5869 5870 5871 5872 5872 5873 5873
5547 5553 5559 5566 5573 5580 5587 5594 5600 5606 5612 5618 5624 5630 5636 5642 5648 5654 5659 5664 5669 5672 5676 5681 5686 5691 5698 5708 5717 5723 5726 5728 5732 5739 5743 5748 5753 5757 5760 5761 5764 5767 5770 5774 5776 5779 5784 5787 5790 5793 5797 5801 5804 5808 5812 5814 5817 5820 5822 5825 5828 5831 5835 5839 5839 5841 5844 5844 5844 5844 5849 5858 5858 5856 5858 5858 5858 5858 5860 5862 5863 5866 5868 5869 5870 5871 5871 5872
5542 5548 5554 5561 5567 5575 5582 5588 5594 5600 5606 5611 5617 5623 5629 5634 5640 5645 5650 5655 5660 5664 5670 5675 5681 5687 5693 5701 5710 5718 5723 5725 5729 5737 5741 5744 5748 5752 5755 5757 5759 5761 5765 5768 5770 5775 5780 5782 5785 5789 5792 5796 5799 5803 5806 5810 5815 5818 5819 5820 5823 5826 5830 5835 5837 5838 5840 5840 5841 5842 5846 5854 5856 5853 5854 5854 5855 5856 5858 5860 5860 5863 5865 5867 5869 5869 5870 5870
5537 5542 5549 5555 5562 5569 5576 5582 5588 5594 5599 5605 5610 5615 5620 5625 5630 5635 5640 5646 5651 5656 5660 5664 5670 5675 5683 5698 5709 5717 5723 5725 5728 5734 5736 5739 5744 5748 5750 5753 5754 5756 5759 5761 5764 5771 5774 5777 5781 5784 5787 5791 5796 5800 5804 5810 5815 5816 5816 5816 5819 5823 5827 5833 5836 5836 5836 5836 5838 5838 5841 5850 5853 5849 5849 5850 5852 5854 5856 5858 5858 5860 5862 5864 5866 5867 5868 5868
5531 5537 5544 5551 5557 5563 5570 5576 5582 5587 5592 5597 5601 5605 5610 5615 5620 5626 5632 5637 5643 5647 5650 5656 5665 5675 5690 5706 5712 5716 5720 5720 5722 5727 5731 5735 5739 5742 5745 5748 5750 5750 5751 5754 5759 5765 5769 5771 5774 5777 5783 5791 5797 5801 5805 5809 5811 5811 5812 5814 5816 5820 5825 5831 5833 5832 5832 5832 5833 5834 5837 5846 5848 5846 5846 5847 5848 5851 5854 5856 5857 5858 5859 5861 5863 5865 5865 5866
5527 5533 5539 5545 5552 5558 5564 5569 5574 5580 5585 5588 5591 5596 5601 5606 5612 5618 5625 5633 5642 5648 5653 5661 5673 5684 5696 5703 5706 5711 5714 5713 5717 5721 5725 5729 5731 5735 5739 5742 5744 5745 5745 5749 5756 5761 5764 5764 5767 5777 5787 5794 5798 5799 5801 5803 5804 5806 5809 5812 5813 5815 5821 5827 5828 5828 5828 5827 5830 5832 5833 5840 5844 5843 5844 5844 5844 5848 5852 5854 5855 5856 5856 5857 5859 5861 5863 5864
5523 5528 5534 5540 5547 5552 5557 5562 5567 5572 5577 5581 5586 5592 5598 5605 5613 5620 5629 5638 5645 5649 5653 5663 5673 5679 5686 5693 5699 5704 5704 5705 5712 5715 5717 5722 5724 5727 5731 5735 5738 5740 5744 5748 5752 5756 5757 5758 5768 5782 5790 5792 5793 5795 5797 5798 5800 5802 5805 5808 5809 5813 5818 5822 5823 5824 5825 5824 5827 5829 5829 5834 5840 5840 5840 5840 5841 5846 5850 5850 5851 5853 5853 5854 5856 5858 5860 5862
5517 5523 5529 5535 5541 5547 5551 5555 5559 5565 5570 5575 5581 5589 5600 5609 5617 5626 5633 5638 5642 5644 5649 5657 5664 5669 5678 5686 5690 5691 5693 5698 5705 5707 5710 5715 5719 5721 5724 5729 5733 5739 5744 5746 5748 5750 5749 5756 5773 5783 5785 5785 5786 5789 5791 5793 5796 5798 5801 5803 5806 5811 5815 5818 5820 5821 5821 5821 5823 5824 5824 5829 5836 5836 5836 5837 5839 5843 5845 5846 5847 5848 5850 5852 5854 5856 5857 5859
5513 5519 5525 5531 5537 5541 5545 5549 5553 5558 5563 5571 5581 5592 5602 5607 5613 5620 5624 5629 5634 5636 5642 5650 5656 5665 5673 5677 5680 5684 5690 5695 5700 5704 5707 5710 5715 5719 5719 5723 5730 5736 5739 5741 5744 5745 5747 5761 5776 5777 5774 5776 5779 5782 5783 5786 5790 5793 5796 5799 5804 5809 5811 5813 5816 5817 5817 5817 5818 5820 5820 5824 5831 5832 5833 5835 5837 5838 5840 5841 5844 5846 5848 5850 5852 5853 5855 5856
5509 5515 5520 5527 5532 5535 5540 5544 5547 5553 5561 5572 5583 5593 5598 5600 5605 5612 5616 5620 5623 5627 5636 5644 5650 5658 5663 5668 5674 5679 5684 5690 5695 5700 5702 5705 5711 5714 5715 5720 5726 5728 5731 5738 5742 5743 5750 5762 5767 5766 5766 5769 5772 5774 5776 5779 5784 5789 5793 5797 5802 5805 5807 5809 5812 5811 5812 5813 5814 5815 5814 5818 5826 5830 5832 5833 5832 5834 5837 5838 5840 5843 5845 5847 5848 5850 5852 5854
5505 5510 5516 5523 5527 5530 5535 5537 5542 5552 5562 5572 5581 5587 5590 5594 5600 5605 5608 5611 5614 5621 5627 5632 5639 5646 5653 5662 5668 5671 5678 5683 5688 5693 5697 5702 5706 5709 5713 5715 5717 5721 5727 5735 5738 5741 5749 5754 5757 5759 5760 5761 5765 5769 5773 5777 5782 5786 5790 5796 5801 5803 5803 5804 5806 5806 5807 5809 5811 5811 5809 5813 5822 5827 5829 5831 5828 5831 5835 5835 5837 5840 5842 5843 5845 5847 5849 5850
5502 5506 5513 5519 5522 5526 5528 5532 5542 5551 5559 5569 5577 5582 5585 5589 5594 5598 5601 5604 5605 5611 5616 5623 5632 5638 5647 5655 5659 5666 5672 5674 5681 5688 5692 5696 5698 5702 5706 5707 5710 5717 5725 5730 5732 5736 5744 5749 5753 5754 5753 5756 5761 5765 5770 5776 5778 5781 5789 5795 5797 5798 5799 5799 5801 5801 5802 5804 5806 5807 5805 5807 5816 5822 5826 5827 5826 5827 5831 5832 5835 5837 5838 5840 5842 5843 5845 5846
5498 5503 5509 5515 5518 5521 5525 5534 5543 5548 5558 5569 5574 5578 5581 5584 5588 5593 5597 5594 5593 5601 5610 5618 5626 5634 5644 5649 5654 5661 5663 5669 5680 5684 5686 5691 5694 5696 5698 5700 5706 5712 5718 5722 5723 5729 5740 5746 5748 5747 5749 5751 5753 5760 5769 5773 5774 5780 5788 5791 5792 5794 5794 5793 5795 5796 5796 5798 5799 5802 5803 5802 5807 5818 5823 5824 5823 5824 5827 5831 5833 5834 5834 5835 5837 5839 5841 5842
5494 5499 5505 5509 5513 5519 5527 5534 5539 5547 5560 5567 5570 5573 5574 5578 5583 5586 5586 5581 5583 5596 5605 5611 5620 5631 5639 5642 5648 5653 5656 5669 5678 5679 5685 5689 5690 5693 5694 5698 5705 5709 5712 5714 5719 5730 5738 5741 5743 5745 5747 5748 5753 5763 5769 5769 5771 5777 5782 5784 5785 5787 5787 5787 5789 5790 5791 5791 5792 5798 5801 5798 5801 5813 5820 5821 5820 5822 5826 5829 5830 5830 5831 5832 5833 5835 5837 5838
5490 5494 5500 5505 5510 5516 5521 5528 5537 5548 5557 5560 5563 5565 5568 5573 5574 5576 5576 5573 5580 5594 5601 5607 5616 5623 5629 5634 5641 5646 5653 5663 5667 5674 5683 5682 5684 5690 5693 5698 5704 5706 5707 5710 5719 5729 5731 5735 5741 5742 5742 5748 5757 5762 5763 5765 5767 5769 5773 5777 5779 5778 5779 5781 5781 5784 5785 5782 5787 5795 5798 5796 5796 5805 5816 5818 5818 5822 5825 5826 5826 5827 5828 5828 5830 5831 5832 5833
5486 5491 5496 5500 5506 5510 5515 5524 5534 5542 5549 5553 5555 5558 5564 5566 5565 5565 5563 5565 5579 5591 5595 5603 5610 5615 5623 5631 5635 5641 5649 5655 5660 5670 5675 5673 5679 5686 5691 5698 5701 5701 5702 5706 5714 5720 5723 5729 5732 5732 5737 5747 5752 5753 5757 5762 5761 5761 5765 5770 5771 5770 5773 5775 5776 5780 5778 5775 5783 5791 5794 5794 5792 5798 5810 5815 5817 5821 5822 5822 5824 5825 5825 5825 5826 5827 5828 5829
5483 5487 5491 5497 5503 5508 5516 5524 5530 5537 5543 5546 5549 5553 5557 5556 5556 5555 5554 5566 5582 5587 5590 5598 5604 5610 5619 5626 5630 5637 5644 5648 5656 5664 5664 5667 5674 5677 5683 5689 5691 5694 5696 5698 5706 5714 5718 5720 5722 5728 5736 5741 5742 5745 5751 5755 5754 5754 5759 5764 5764 5765 5768 5769 5771 5772 5770 5773 5783 5787 5789 5790 5788 5793 5805 5813 5817 5819 5819 5820 5820 5821 5821 5821 5823 5823 5825 5826
5479 5483 5489 5496 5502 5508 5517 5524 5529 5535 5538 5540 5543 5547 5547 5546 5545 5546 5554 5571 5578 5577 5584 5593 5600 5608 5617 5621 5626 5633 5638 5642 5650 5656 5658 5664 5668 5669 5675 5680 5683 5687 5688 5692 5702 5709 5712 5715 5720 5728 5732 5733 5736 5740 5744 5746 5747 5749 5753 5756 5757 5759 5762 5763 5764 5767 5768 5774 5781 5781 5781 5783 5785 5792 5800 5808 5814 5814 5814 5816 5816 5816 5817 5818 5819 5820 5821 5822
5475 5481 5488 5494 5500 5507 5515 5520 5524 5529 5533 5535 5537 5538 5539 5537 5536 5544 5559 5569 5569 5573 5585 5593 5600 5609 5613 5615 5619 5626 5632 5636 5643 5650 5654 5660 5662 5664 5671 5677 5682 5685 5686 5693 5699 5703 5708 5710 5714 5719 5723 5726 5730 5732 5736 5740 5743 5745 5748 5749 5751 5753 5755 5756 5759 5764 5767 5772 5774 5773 5772 5775 5783 5790 5794 5802 5808 5809 5810 5812 5813 5814 5814 5814 5815 5816 5818 5819
5473 5480 5486 5492 5498 5504 5510 5513 5518 5524 5527 5529 5530 5531 5530 5528 5535 5548 5558 5563 5567 5576 5585 5591 5599 5605 5605 5608 5614 5620 5625 5629 5636 5642 5645 5650 5652 5655 5662 5670 5676 5680 5686 5692 5693 5695 5701 5702 5704 5712 5720 5724 5727 5732 5738 5742 5743 5745 5748 5748 5748 5749 5750 5754 5757 5760 5764 5768 5768 5765 5763 5770 5781 5788 5791 5795 5799 5804 5806 5808 5810 5811 5811 5811 5811 5812 5814 5815
5471 5476 5482 5488 5493 5498 5504 5509 5514 5518 5520 5522 5524 5524 5521 5523 5536 5547 5552 5559 5567 5574 5581 5587 5593 5597 5598 5603 5609 5613 5619 5625 5631 5634 5636 5639 5643 5648 5656 5662 5669 5676 5680 5684 5688 5691 5695 5697 5704 5715 5720 5723 5727 5733 5737 5737 5736 5740 5742 5740 5740 5744 5748 5753 5755 5758 5762 5762 5760 5758 5760 5770 5778 5782 5787 5789 5791 5798 5802 5803 5806 5808 5808 5808 5808 5809 5811 5811
5467 5473 5478 5484 5489 5496 5501 5506 5510 5513 5515 5517 5518 5516 5518 5527 5539 5546 5552 5561 5566 5571 5578 5582 5583 5586 5590 5597 5601 5605 5612 5617 5620 5624 5627 5631 5636 5643 5651 5657 5665 5671 5674 5680 5686 5689 5691 5695 5703 5710 5712 5716 5724 5729 5729 5728 5731 5734 5732 5732 5738 5743 5745 5748 5749 5752 5754 5751 5750 5754 5759 5768 5772 5773 5780 5784 5785 5791 5797 5799 5801 5803 5805 5806 5806 5806 5807 5808
5465 5471 5477 5482 5489 5495 5499 5503 5508 5509 5512 5513 5511 5513 5522 5532 5540 5546 5552 5558 5562 5568 5574 5574 5575 5578 5584 5590 5593 5599 5606 5609 5610 5613 5618 5623 5626 5633 5642 5651 5659 5666 5671 5679 5684 5686 5689 5693 5698 5702 5706 5715 5722 5723 5722 5723 5726 5726 5725 5732 5740 5738 5736 5740 5741 5742 5743 5742 5745 5751 5756 5763 5766 5768 5775 5781 5783 5787 5791 5795 5798 5799 5801 5802 5802 5803 5803 5804
5465 5471 5476 5482 5488 5493 5497 5502 5504 5506 5508 5508 5509 5515 5523 5530 5536 5542 5548 5553 5558 5563 5566 5567 5570 5574 5579 5584 5588 5596 5600 5601 5603 5606 5610 5615 5618 5626 5637 5644 5652 5660 5668 5675 5679 5683 5687 5689 5691 5695 5702 5710 5713 5712 5712 5713 5715 5718 5723 5731 5733 5728 5728 5733 5735 5736 5740 5741 5743 5749 5753 5755 5759 5765 5771 5776 5781 5784 5784 5789 5793 5795 5797 5797 5799 5799 5799 5800
5463 5468 5473 5480 5486 5490 5495 5499 5502 5503 5502 5501 5505 5512 5519 5526 5533 5538 5542 5548 5553 5556 5558 5561 5566 5569 5573 5578 5584 5591 5593 5594 5598 5602 5604 5607 5613 5624 5635 5641 5649 5656 5663 5670 5674 5679 5683 5684 5686 5691 5697 5701 5700 5699 5700 5703 5708 5714 5719 5722 5722 5722 5725 5728 5732 5735 5739 5740 5742 5745 5745 5747 5756 5765 5768 5771 5777 5780 5780 5783 5786 5789 5792 5793 5794 5795 5795 5796
5460 5465 5472 5478 5483 5487 5492 5496 5497 5496 5493 5496 5505 5511 5516 5524 5530 5534 5537 5542 5546 5549 5552 5557 5561 5563 5568 5574 5580 5583 5586 5590 5594 5596 5599 5603 5611 5622 5630 5636 5644 5652 5659 5666 5670 5675 5678 5679 5682 5687 5690 5688 5686 5689 5695 5701 5706 5709 5713 5714 5715 5719 5721 5724 5727 5729 5732 5734 5736 5737 5737 5744 5757 5763 5763 5767 5771 5774 5777 5779 5779 5781 5786 5788 5789 5790 5791 5792
5458 5464 5469 5476 5480 5484 5487 5488 5487 5487 5490 5496 5504 5508 5513 5520 5525 5529 5532 5536 5540 5544 5548 5553 5555 5558 5564 5569 5573 5577 5580 5584 5587 5590 5593 5599 5605 5613 5622 5631 5640 5647 5653 5657 5661 5667 5672 5674 5677 5680 5680 5678 5682 5690 5697 5701 5703 5708 5709 5709 5713 5717 5718 5719 5719 5721 5725 5728 5731 5733 5733 5742 5754 5756 5758 5762 5765 5770 5774 5773 5774 5775 5779 5782 5784 5786 5788 5789
5456 5461 5466 5471 5475 5477 5479 5480 5482 5485 5489 5494 5500 5506 5511 5516 5521 5525 5527 5531 5535 5539 5544 5547 5550 5554 5560 5564 5569 5573 5575 5578 5582 5584 5589 5594 5600 5609 5620 5629 5636 5642 5646 5649 5657 5665 5669 5670 5671 5673 5675 5678 5682 5688 5691 5693 5698 5702 5701 5702 5708 5709 5709 5711 5713 5718 5724 5726 5730 5732 5728 5736 5748 5750 5754 5758 5760 5768 5771 5769 5770 5771 5772 5776 5778 5780 5783 5784
5453 5458 5462 5466 5469 5472 5474 5476 5479 5483 5487 5492 5498 5504 5508 5512 5516 5519 5522 5526 5531 5535 5538 5542 5546 5549 5555 5560 5565 5568 5571 5575 5578 5581 5587 5593 5598 5607 5617 5624 5631 5635 5638 5643 5651 5658 5661 5662 5664 5667 5673 5676 5677 5680 5683 5686 5688 5688 5689 5695 5699 5699 5703 5709 5712 5717 5720 5720 5727 5726 5720 5732 5745 5747 5750 5753 5754 5762 5767 5765 5765 5766 5767 5770 5772 5774 5776 5777
5449 5454 5458 5461 5465 5468 5470 5472 5476 5480 5485 5489 5494 5499 5503 5508 5512 5515 5519 5522 5528 5532 5535 5538 5542 5546 5552 5557 5561 5565 5568 5572 5574 5579 5585 5589 5594 5604 5610 5616 5623 5627 5630 5637 5644 5650 5653 5653 5656 5661 5664 5666 5668 5669 5672 5675 5677 5678 5683 5690 5693 5695 5701 5703 5707 5711 5709 5713 5721 5718 5717 5734 5744 5743 5746 5748 5748 5754 5759 5759 5759 5760 5763 5764 5766 5767 5769 5770
5447 5452 5455 5458 5462 5466 5468 5471 5476 5481 5484 5488 5492 5496 5501 5505 5508 5512 5516 5520 5525 5530 5533 5536 5541 5545 5551 5555 5559 5562 5564 5567 5571 5576 5581 5585 5591 5598 5602 5607 5615 5620 5628 5636 5641 5646 5648 5646 5648 5652 5652 5655 5658 5659 5664 5671 5674 5675 5680 5686 5689 5693 5695 5696 5702 5702 5700 5710 5716 5712 5719 5735 5739 5738 5741 5741 5742 5745 5750 5754 5754 5755 5758 5759 5760 5761 5762 5765
5446 5449 5452 5455 5460 5465 5468 5472 5476 5480 5483 5487 5491 5495 5499 5503 5507 5510 5514 5519 5523 5527 5531 5535 5539 5543 5548 5551 5554 5556 5558 5562 5567 5571 5577 5582 5587 5592 5596 5601 5607 5614 5623 5629 5632 5637 5637 5635 5640 5645 5647 5652 5657 5660 5666 5670 5670 5671 5677 5683 5686 5689 5690 5693 5694 5690 5697 5710 5708 5707 5721 5730 5730 5734 5735 5734 5736 5738 5742 5748 5751 5752 5753 5754 5753 5754 5757 5760
5444 5447 5451 5454 5458 5462 5466 5470 5474 5478 5483 5487 5491 5495 5498 5502 5505 5507 5512 5516 5521 5525 5529 5532 5537 5541 5545 5548 5550 5552 5555 5559 5563 5568 5573 5578 5582 5587 5591 5596 5601 5608 5616 5619 5622 5626 5624 5624 5632 5638 5643 5650 5654 5657 5661 5661 5662 5668 5674 5678 5681 5684 5684 5683 5682 5685 5697 5701 5695 5704 5719 5720 5722 5728 5726 5727 5733 5734 5735 5740 5744 5746 5746 5746 5748 5749 5752 5755
5441 5446 5451 5455 5458 5461 5464 5469 5473 5476 5481 5486 5489 5493 5496 5500 5503 5506 5510 5514 5518 5522 5526 5530 5534 5538 5542 5545 5547 5550 5553 5556 5559 5564 5568 5572 5576 5580 5586 5591 5596 5602 5607 5611 5615 5618 5615 5618 5627 5633 5637 5643 5647 5651 5653 5654 5657 5663 5667 5670 5674 5676 5676 5675 5679 5687 5694 5689 5692 5708 5713 5709 5716 5720 5717 5723 5729 5727 5727 5728 5732 5737 5738 5739 5743 5744 5747 5749
5439 5443 5448 5453 5457 5460 5463 5467 5471 5474 5478 5483 5487 5491 5494 5498 5502 5505 5508 5512 5516 5519 5524 5528 5531 5535 5538 5541 5544 5546 5549 5552 5555 5559 5564 5568 5571 5575 5581 5585 5589 5595 5600 5605 5611 5612 5612 5617 5623 5626 5631 5637 5639 5643 5646 5648 5650 5655 5657 5661 5666 5667 5669 5672 5677 5684 5687 5684 5692 5704 5701 5700 5711 5714 5716 5722 5721 5718 5721 5721 5724 5730 5731 5732 5735 5736 5739 5741
5439 5443 5446 5450 5455 5459 5462 5465 5468 5472 5476 5480 5483 5488 5491 5495 5500 5503 5507 5510 5513 5516 5520 5524 5527 5530 5533 5535 5538 5542 5544 5548 5552 5555 5559 5563 5566 5570 5576 5579 5584 5590 5593 5598 5604 5606 5607 5612 5617 5621 5625 5628 5631 5636 5639 5641 5644 5647 5649 5653 5657 5660 5663 5666 5670 5677 5679 5678 5687 5696 5692 5695 5708 5713 5714 5716 5712 5712 5716 5716 5718 5722 5722 5723 5725 5728 5731 5732
5438 5442 5445 5449 5453 5457 5460 5463 5467 5470 5474 5477 5481 5486 5489 5493 5497 5501 5504 5506 5508 5512 5516 5519 5522 5525 5527 5531 5536 5539 5541 5543 5546 5549 5553 5557 5561 5566 5571 5575 5579 5583 5587 5593 5598 5599 5601 5605 5610 5613 5615 5618 5626 5630 5632 5635 5638 5638 5639 5644 5649 5652 5656 5660 5665 5670 5671 5673 5682 5686 5683 5692 5705 5707 5706 5707 5706 5708 5710 5711 5711 5713 5715 5716 5717 5721 5724 5725
5436 5440 5444 5448 5451 5455 5458 5462 5466 5469 5472 5476 5480 5484 5487 5491 5494 5497 5500 5503 5505 5509 5513 5516 5519 5522 5525 5529 5533 5536 5537 5539 5541 5545 5548 5552 5555 5559 5564 5568 5573 5577 5582 5587 5591 5592 5594 5598 5603 5605 5607 5614 5620 5623 5627 5631 5626 5621 5629 5640 5646 5649 5653 5656 5660 5665 5667 5670 5675 5676 5682 5694 5700 5698 5698 5701 5702 5703 5705 5706 5705 5706 5709 5710 5709 5713 5717 5719